Tracking 27112 objects as of 27-Mar-2023
HD Live streaming from Space Station
objects crossing your sky now

STARLINK-4337

Track STARLINK-4337 now!
10-day predictions
STARLINK-4337 is classified as:


NORAD ID: 53053
Int'l Code: 2022-077L
Perigee: 569.5 km
Apogee: 570.6 km
Inclination: 97.7 °
Period: 95.9 minutes
Semi major axis: 6941 km
RCS: Unknown
Launch date: July 11, 2022
Source: United States (US)
Launch site: AIR FORCE WESTERN TEST RANGE (AFWTR)
Your satellite tracking list
Your tracking list is empty




NASA's NSSDC Master Catalog

Two Line Element Set (TLE):
1 53053U 22077L   23085.92230651 -.00007405  00000-0 -57191-3 0  9994
2 53053  97.6564 268.1840 0000771 213.7109 146.4066 15.01303210 39063
Source of the keplerian elements: AFSPC